www.pogodaiklimat.ru
ПОГОДА в Кеми Айос
Время
(UTC), дата
13 4.12
14 4.12
15 4.12
16 4.12
17 4.12
18 4.12
19 4.12
20 4.12
21 4.12
22 4.12
23 4.12
00 5.12
01 5.12
02 5.12
03 5.12
04 5.12
05 5.12
06 5.12
07 5.12
08 5.12
09 5.12
10 5.12
11 5.12
12 5.12
13 5.12
14 5.12
15 5.12
16 5.12
17 5.12
18 5.12
19 5.12
20 5.12
21 5.12
22 5.12
23 5.12
00 6.12
01 6.12
02 6.12
03 6.12
04 6.12
05 6.12
06 6.12
07 6.12
08 6.12
09 6.12
10 6.12
11 6.12
12 6.12
13 6.12
14 6.12
15 6.12
16 6.12
17 6.12
18 6.12
19 6.12
20 6.12
21 6.12
22 6.12
23 6.12
00 7.12
01 7.12
02 7.12
03 7.12
04 7.12
05 7.12
06 7.12
07 7.12
08 7.12
09 7.12
10 7.12
11 7.12
12 7.12
13 7.12
14 7.12
15 7.12
16 7.12
17 7.12
18 7.12
19 7.12
20 7.12
21 7.12
22 7.12
23 7.12
00 8.12
01 8.12
02 8.12
03 8.12
04 8.12
05 8.12
06 8.12
07 8.12
08 8.12
09 8.12
10 8.12
11 8.12
12 8.12
13 8.12
14 8.12
15 8.12
16 8.12
17 8.12
18 8.12
19 8.12
20 8.12
21 8.12
22 8.12
23 8.12
00 9.12
01 9.12
02 9.12
03 9.12
04 9.12
05 9.12
06 9.12
07 9.12
08 9.12
09 9.12
10 9.12
11 9.12
12 9.12
13 9.12
14 9.12
15 9.12
16 9.12
17 9.12
18 9.12
19 9.12
20 9.12
21 9.12
22 9.12
23 9.12
00 10.12
01 10.12
02 10.12
03 10.12
04 10.12
05 10.12
06 10.12
07 10.12
08 10.12
09 10.12
10 10.12
11 10.12
12 10.12
13 10.12
14 10.12
15 10.12
16 10.12
17 10.12
18 10.12
19 10.12
20 10.12
21 10.12
22 10.12
23 10.12
00 11.12
01 11.12
02 11.12
03 11.12
04 11.12
05 11.12
06 11.12
07 11.12
08 11.12
09 11.12
10 11.12
11 11.12
12 11.12
13 11.12
Ветер
(напр.,м/с)
Видим. Явления Облачность Т
(С)
Тd
(С)
f
(%)
Тe
(С)
Тes
(С)
Комфортность P
(гПа)
Po
(гПа)
Тmin
(С)
Tmax
(С)
R
(мм)
R24
(мм)
S
(см)
З 6-7
{8}
50 км 9/9
[]
+2.2 +1.5 95 -4 -4 990.1 989.6
З 7-8
{8}
50 км 9/9
[]
+1.9 +1.7 99 -5 -5 991.1 990.6
З 10-12
{12}
50 км 10/10
[]
+1.9 +1.5 97 -6 -6 991.0 990.5
З 9-11
{12}
50 км 9/0 2000 м
[]
+2.3 +1.5 94 -5 -5 991.0 990.5
З 7-9
{11}
50 км 9/4 2000 м
[]
+1.9 +1.7 99 -5 -5 990.9 990.4
ЮЗ 5-7
{9}
50 км 9/9
[]
+1.4 +1.4 100 -5 -5 991.2 990.8 +0.6 +2.4
З 8-9
{9}
50 км 9/1 1500 м
[]
+1.8 +1.8 100 -5 -5 990.9 990.4
ЮЗ 7-8
{10}
50 км 9/9 2000 м
[]
+2.6 +2.1 97 -4 -4 990.6 990.2
ЮЗ 7-8
{10}
50 км 1/0
[]
+2.0 +1.7 98 -5 -5 990.1 989.7
ЮЗ 9-11
{11}
50 км 6/0
[]
+1.8 +1.8 100 -6 -6 989.3 988.8
ЮЗ 9-10
{12}
40 км 9/9 2000 м
[]
+2.0 +2.0 100 -6 -6 988.7 988.2
ЮЗ 10-11
{14}
13 км слаб. дождь {морось} 10/10 1000 м
[]
+1.8 +1.7 99 -6 -6 987.9 987.4
ЮЗ 9-11
{12}
26 км слаб. ливневой дождь 10/10 1000 м
[]
+1.7 +1.7 100 -6 -6 986.8 986.4
Ю 8-10
{11}
12 км слаб. ливневой дождь 10/10 1000 м
[]
+1.8 +1.8 100 -5 -5 986.1 985.6
ЮЗ 7-10
{12}
28 км слаб. морось {дождь} 9/9 50 м
[]
+1.7 +1.7 100 -5 -5 985.2 984.7
ЮЗ 9-11
{11}
15 км в посл. час морось 10/10 50 м
[]
+1.4 +1.3 99 -6 -6 984.4 984.0
ЮЗ 10-12
{14}
25 км 4/1 <50 м
[]
+1.4 +1.4 100 -7 -7 983.8 983.3
ЮЗ 11-12
{12}
40 км {ливн. осадки, дождь} 6/0
[]
+1.5 +1.5 100 -7 -7 983.8 983.3 +1.3 +3.0
ЮЗ 8-9
{11}
50 км 9/9
[]
+1.5 +1.5 100 -6 -6 983.4 982.9
З 9-11
{11}
50 км 9/9
[]
+2.2 +1.6 96 -5 -5 983.4 983.0
ЮЗ 11-13
{13}
50 км ясно +2.1 +1.4 95 -6 -6 983.1 982.7
ЮЗ 12-14
{14}
50 км 6/0
[]
+1.9 +1.0 94 -6 -6 982.9 982.4
ЮЗ 11-13
{13}
50 км 1/0
[]
+1.8 +0.9 94 -6 -6 982.0 981.6
ЮЗ 10-12
{14}
50 км 1/0
[]
+1.7 +1.0 95 -6 -6 981.6 981.2
ЮЗ 9-11
{13}
50 км 1/0
[]
+1.5 +1.4 99 -6 -6 980.7 980.2
ЮЗ 9-11
{12}
50 км ясно +1.5 +1.5 100 -6 -6 979.8 979.3
Ю 11-13
{13}
50 км 4/0
[]
+1.5 +1.5 100 -7 -7 978.7 978.2
ЮЗ 8-9
{12}
50 км 6/1
[]
+1.1 +1.1 100 -6 -6 978.4 977.9
ЮЗ 9-11
{11}
50 км 9/9
[]
+1.4 +1.4 100 -6 -6 977.3 976.8
ЮЗ 11-13
{13}
50 км 9/9 2000 м
[]
+1.5 +1.3 99 -7 -7 976.7 976.2 +1.0 +2.3
ЮЗ 8-11
{13}
50 км 1/0
[]
+1.2 +0.9 98 -6 -6 976.2 975.8
ЮЗ 10-11
{11}
50 км 9/6 2000 м
[]
+1.2 +0.8 97 -7 -7 976.0 975.5
ЮЗ 11-12
{12}
50 км 9/1 1000 м
[]
+1.5 +0.5 93 -7 -7 976.1 975.7
З 10-13
{13}
30 км слаб. дождь 10/4 600 м
[]
+1.5 +0.6 94 -6 -6 976.3 975.8
З 6-9
{13}
50 км в посл. час дождь 9/1 1000 м
[]
+1.2 +0.7 96 -5 -5 976.1 975.6
ЮЗ 11-13
{13}
50 км {ливн. осадки, дождь} 4/0
[]
+1.1 -0.2 91 -7 -7 976.2 975.7
З 8-10
{12}
50 км ясно +0.9 -0.8 88 -6 -6 976.5 976.0
З 9-10
{10}
50 км ясно +0.6 -1.4 86 -7 -7 976.6 976.2
З 6-8
{10}
50 км ясно 0.0 -1.3 91 -7 -7 976.9 976.5
З 7-8
{8}
50 км ясно 0.0 -1.3 91 -7 -7 977.6 977.1
ЮЗ 6-7
{8}
50 км ясно -0.5 -1.0 96 -7 -7 977.8 977.3
З 6-7
{8}
50 км ясно -0.4 -0.9 96 -7 -7 978.2 977.7 -0.6 +1.7
З 6-7
{8}
50 км ясно -0.6 -1.4 94 -8 -8 978.4 977.9
З 5-6
{7}
50 км ясно -0.9 -1.4 96 -7 -7 978.6 978.1
ЮЗ 6-6
{6}
50 км ясно -0.6 -1.2 96 -8 -8 979.0 978.5
ЮЗ 7-7
{7}
50 км 1/0
[]
-0.5 -0.9 97 -8 -8 979.3 978.8
ЮЗ 6-7
{9}
50 км 6/0
[]
-0.5 -0.6 99 -8 -8 979.5 979.0
ЮЗ 5-6
{6}
50 км 1/0
[]
-0.7 -0.7 100 -7 -7 979.6 979.1
З 4-4
{6}
50 км ясно -0.9 -0.9 100 -7 -7 979.5 979.1
ЮЗ 2-3
{4}
50 км ясно -0.6 -0.6 100 -5 -5 979.7 979.2
ЮЗ 3-4
{5}
50 км ясно -0.3 -0.7 97 -5 -5 979.8 979.3
Ю 5-6
{6}
50 км ясно -0.8 -0.8 100 -7 -7 979.9 979.4
Ю 5-7
{7}
50 км ясно +0.3 +0.2 99 -6 -6 980.4 980.0
Ю 5-6
{8}
50 км ясно 0.0 0.0 100 -6 -6 980.6 980.1 -1.4 +0.4
Ю 5-6
{6}
50 км 6/0
[]
-0.2 -0.2 100 -7 -7 980.8 980.3
Ю 6-8
{8}
50 км 9/0
[]
+0.6 +0.3 98 -6 -6 980.8 980.3
Ю 6-7
{8}
50 км 6/6
[]
+0.5 +0.3 99 -6 -6 981.0 980.5
Ю 5-7
{7}
50 км 1/0 300 м
[]
+0.2 +0.2 100 -6 -6 981.1 980.6
Ю 6-8
{8}
50 км 6/1 300 м
[]
+0.3 +0.3 100 -7 -7 981.2 980.7
Ю 5-7
{8}
50 км 1/0
[]
+0.2 +0.2 100 -6 -6 981.4 981.0
Ю 5-7
{8}
50 км 9/0 300 м
[]
+0.5 +0.3 99 -6 -6 981.5 981.0
Ю 5-6
{8}
50 км 6/0 300 м
[]
+0.4 +0.2 99 -6 -6 981.6 981.1
Ю 5-6
{6}
50 км 4/0
[]
+0.1 +0.1 100 -6 -6 981.5 981.0
Ю 5-7
{7}
50 км 1/0 300 м
[]
+0.4 +0.4 100 -6 -6 981.4 980.9
Ю 5-7
{8}
50 км ясно +0.4 +0.2 99 -6 -6 981.6 981.1
ЮЗ 5-7
{7}
50 км ясно +0.1 -0.2 98 -6 -6 981.9 981.4 -0.2 +0.9
Ю 4-6
{7}
50 км 4/0
[]
+0.1 -0.2 98 -6 -6 981.8 981.3
Ю 5-7
{7}
50 км 6/0
[]
+0.2 +0.2 100 -6 -6 982.2 981.7
Ю 5-7
{7}
50 км 9/0
[]
+0.3 +0.3 100 -6 -6 982.4 981.9
Ю 6-7
{8}
50 км 1/0 300 м
[]
+0.4 +0.1 98 -6 -6 982.0 981.5
Ю 4-5
{8}
50 км 1/0
[]
-0.2 -0.2 100 -6 -6 981.8 981.3
Ю 4-6
{7}
50 км 6/0
[]
+0.1 +0.1 100 -6 -6 981.3 980.9
Ю 6-7
{7}
50 км 9/6 300 м
[]
+0.2 +0.2 100 -7 -7 981.2 980.7
Ю 6-8
{9}
900 м туман ?/? +0.3 +0.3 100 -7 -7 981.1 980.6
Ю 7-10
{10}
600 м сильная пыльная буря {метель} ?/? +0.5 +0.5 100 -7 -7 980.9 980.4
Ю 6-8
{10}
15 км в посл. час туман 9/9 <50 м
[]
+0.8 +0.8 100 -6 -6 980.5 980.1
Ю 6-8
{9}
14 км 10/10 50 м
[]
+0.7 +0.7 100 -6 -6 980.2 979.8
Ю 4-6
{8}
8000 м дымка 9/9 50 м
[]
+0.5 +0.5 100 -5 -5 980.0 979.6 -0.2 +1.0
Ю 4-5
{6}
50 км 9/9 200 м
[]
+0.7 +0.7 100 -5 -5 979.6 979.2
Ю 4-6
{6}
50 км 9/0 200 м
[]
+0.9 +0.9 100 -5 -5 979.3 978.8
Ю 4-5
{6}
50 км 6/6 200 м
[]
+0.3 +0.1 99 -5 -5 978.8 978.4
Ю 4-5
{6}
18 км 9/9 200 м
[]
-0.2 -0.2 100 -6 -6 978.6 978.1
Ю 4-5
{5}
15 км 9/9 200 м
[]
-0.2 -0.2 100 -6 -6 978.4 978.0
Ю 3-4
{5}
50 км 9/0 300 м
[]
+0.2 +0.2 100 -5 -5 978.1 977.7
Ю 4-5
{5}
50 км 9/0 300 м
[]
+0.2 -0.8 93 -5 -5 977.8 977.3
ЮЗ 3-3
{5}
50 км 1/0 200 м
[]
-0.9 -0.9 100 -6 -6 977.7 977.2
СЗ 4-5
{5}
29 км 9/0 200 м
[]
-1.8 -1.8 100 -8 -8 977.7 977.2
З 4-4
{4}
17 км 9/9 <50 м
[]
-1.7 -1.7 100 -8 -8 977.7 977.3
СЗ 5-7
{7}
6000 м дымка 9/9 <50 м
[]
-3.4 -3.5 99 -11 -11 977.8 977.3
СЗ 5-6
{7}
500 м слаб. ливневой снег 9/0 <50 м
[]
-4.7 -4.7 100 -12 -12 978.2 977.7 -4.7 +0.9
СЗ 6-7
{7}
8000 м слаб. ливневой снег 9/0 50 м
[]
-6.4 -6.4 100 -15 -15 978.5 978.0
СЗ 5 1300 м в посл. час туман 9/9 50 м
[]
-7.0 -7.0 100 -15 -15 978.6 978.2
СЗ 6-7
{7}
50 км {ливн. осадки, метель} 9/0 100 м
[]
-7.7 -7.9 98 -16 -16 978.8 978.3
СЗ 5-6
{8}
50 км 9/9 50 м
[]
-7.6 -7.8 98 -15 -15 979.1 978.6
СЗ 4-5
{6}
50 км в посл. час зёрна 9/9 100 м
[]
-7.8 -8.0 98 -15 -15 979.2 978.7
СЗ 5-6
{6}
50 км {ливн. осадки, снег} 9/9 200 м
[]
-8.3 -8.6 98 -16 -16 979.5 979.0
СЗ 4-5
{6}
28 км 9/9 100 м
[]
-8.1 -8.4 98 -15 -15 979.7 979.2
СЗ 2-2
{4}
21 км в посл. час снег 9/9 100 м
[]
-7.8 -8.0 98 -12 -12 979.9 979.4
С 1-2
{3}
24 км в посл. час переохл. осадки (гололёд) 9/9 100 м
[]
-7.4 -7.6 98 -10 -10 979.5 979.0
Ю 1-2
{2}
21 км 9/9 100 м
[]
-7.1 -7.3 98 -10 -10 979.4 979.0
ЮЗ 1-2
{2}
40 км 9/9 200 м
[]
-6.3 -6.3 100 -9 -9 979.4 978.9
В 1-1
{2}
50 км {ливн. осадки, снег} 9/0 200 м
[]
-6.3 -6.5 98 -9 -9 979.1 978.7 -8.4 -4.8
В 1-2
{2}
50 км 9/9 200 м
[]
-6.3 -6.4 99 -9 -9 978.8 978.3
В 2-3
{3}
20 км 9/9 100 м
[]
-6.4 -6.6 98 -11 -11 978.4 977.9
В 2-4
{4}
40 км 9/9 200 м
[]
-6.2 -6.4 98 -11 -11 978.0 977.5
В 2-5
{6}
40 км 9/9 200 м
[]
-6.1 -6.2 99 -11 -11 977.0 976.5
В 3-5
{5}
40 км 9/9 300 м
[]
-6.0 -6.1 99 -12 -12 976.2 975.7
СВ 4-8
{8}
22 км 9/9 100 м
[]
-5.8 -6.0 98 -13 -13 975.1 974.6
СВ 5-8
{8}
50 км 9/9 100 м
[]
-5.8 -5.9 99 -13 -13 974.4 973.9
СВ 7-10
{10}
50 км 10/10 100 м
[]
-5.6 -5.8 98 -14 -14 973.6 973.1
СВ 7-10
{11}
50 км 10/10 200 м
[]
-5.3 -5.5 98 -14 -14 972.6 972.1
СВ 8-12
{12}
1300 м слаб. снег ?/? -4.9 -5.0 99 -14 -14 971.9 971.4
СВ 9-11
{12}
2900 м слаб. снег 10/10 300 м
[]
-4.8 -4.9 99 -14 -14 971.3 970.9
СВ 11-13
{13}
2400 м слаб. снег {туман} 10/10 600 м
[]
-5.0 -5.3 98 -15 -15 971.1 970.6 -6.4 -4.8
СВ 10-13
{13}
4300 м слаб. снег 10/10 600 м
[]
-5.0 -5.8 94 -15 -15 971.4 971.0
СВ 11-13
{13}
11 км снежные зёрна 9/9 1000 м
[]
-5.0 -5.9 93 -15 -15 972.1 971.6
С 10-13
{13}
14 км слаб. снег 9/9 1000 м
[]
-4.6 -5.6 93 -14 -14 972.7 972.2
С 10-13
{13}
5000 м слаб. снег 10/10 300 м
[]
-4.4 -5.3 93 -14 -14 973.5 973.0
С 10-12
{13}
1700 м слаб. снег 10/10 300 м
[]
-4.5 -5.2 95 -14 -14 974.6 974.2
С 9-11
{13}
6000 м слаб. снег 10/10 600 м
[]
-4.5 -5.6 92 -14 -14 975.9 975.4
-11
{12}
6000 м снежные зёрна 10/10 600 м
[]
-4.6 -5.6 93 977.0 976.6
С 9-10
{10}
10 км снежные зёрна 10/0 1000 м
[]
-4.8 -5.9 92 -14 -14 978.5 978.0
С 7-9
{11}
23 км снежные зёрна 9/4 1000 м
[]
-5.0 -5.9 93 -13 -13 979.7 979.2
С 8-9
{10}
30 км слаб. снег 6/4 1500 м
[]
-5.4 -6.4 93 -14 -14 981.0 980.5
С 7-8
{9}
50 км в посл. час зёрна ясно -5.8 -6.9 92 -14 -14 982.5 982.0
СЗ 6-8
{8}
50 км {снег} 6/6
[]
-6.2 -7.4 91 -14 -14 984.0 983.5 -6.3 -4.4
СЗ 6-8
{8}
50 км 6/0
[]
-6.3 -7.4 92 -14 -14 985.3 984.8
СЗ 7-8
{9}
50 км 10/6 600 м
[]
-5.5 -7.0 89 -14 -14 986.7 986.2
СЗ 7-8
{9}
30 км слаб. ливневой снег {туман} 10/10 1000 м
[]
-6.1 -7.4 90 -15 -15 988.4 987.9
СЗ 6-8
{8}
50 км в посл. час снег 6/4 1500 м
[]
-6.2 -7.7 89 -14 -14 989.9 989.4
СЗ 7-8
{9}
50 км 1/0 1500 м
[]
-6.3 -8.4 85 -15 -15 991.2 990.7
СЗ 5-6
{8}
50 км {ливн. осадки, туман} 9/0
[]
-7.4 -9.8 83 -15 -15 992.7 992.2
СЗ 5-6
{7}
50 км ясно -8.5 -11.9 76 -16 -16 994.2 993.7
СЗ 6-8
{8}
50 км ясно -9.3 -12.2 79 -18 -18 995.4 995.0
С 6-7
{8}
50 км ясно -9.5 -11.8 83 -18 -18 996.9 996.4
С 5-7
{8}
50 км 9/9
[]
-9.5 -11.5 85 -17 -17 998.2 997.7
С 4-5
{7}
40 км в посл. час снег 9/6 600 м
[]
-8.7 -10.2 89 -16 -16 999.4 998.9
С 4-6
{6}
50 км в посл. час переохл. осадки (гололёд) ясно -8.6 -10.0 90 -16 -16 1000.9 1000.4 -9.6 -5.4
СЗ 3-4
{6}
50 км ясно -8.7 -10.4 87 -15 -15 1002.1 1001.6
СЗ 3-4
{4}
50 км ясно -8.8 -10.5 87 -15 -15 1003.4 1002.9
СЗ 3-3
{5}
50 км ясно -8.6 -10.5 86 -14 -14 1004.4 1003.9
СЗ 2-4
{4}
50 км ясно -8.7 -10.5 87 -13 -13 1005.3 1004.8
З 3-4
{4}
50 км 6/0 2000 м
[]
-8.7 -10.4 87 -15 -15 1006.3 1005.8
З 2-3
{4}
50 км ясно -9.0 -10.0 92 -14 -14 1007.0 1006.5
СЗ 2-2
{4}
50 км ясно -9.2 -10.9 87 -14 -14 1007.8 1007.3
СЗ 2-3
{3}
50 км ясно -10.0 -11.5 89 -15 -15 1008.4 1007.9
З 1-2
{2}
50 км ясно -11.1 -12.3 91 -13 -13 1008.8 1008.3
СЗ 1-2
{2}
50 км ясно -11.3 -11.9 95 -14 -14 1009.4 1008.9
З 2-2
{3}
50 км ясно -11.0 -12.4 89 -16 -16 1009.5 1009.0
штиль 0-1
{2}
50 км ясно -12.0 -13.1 91 -12 -12 1009.2 1008.7 -12.8 -8.4
ЮВ 6-6
{6}
50 км ясно -11.2 -12.4 91 -20 -20 1009.3 1008.8
ЮВ 5-6
{6}
50 км ясно -11.5 -12.4 93 -19 -19 1009.2 1008.7
ЮВ 6-7
{7}
40 км 1/0
[]
-9.4 -9.8 97 -18 -18 1009.2 1008.7
ЮВ 7-7
{7}
45 км 1/0 600 м
[]
-8.4 -8.7 98 -17 -17 1008.8 1008.3
Ю 4-5
{8}
40 км 4/1 600 м
[]
-6.6 -6.7 99 -13 -13 1008.4 1007.9
Ю 4-8
{8}
50 км 10/0
[]
-6.7 -7.1 97 -14 -14 1007.9 1007.4
ЮВ 6-7
{8}
50 км 9/9
[]
-4.1 -4.1 100 -12 -12 1007.1 1006.6
Ю 9-13
{14}
50 км 9/9 100 м
[]
-2.2 -2.2 100 -11 -11 1006.6 1006.1
Ю 11-13
{14}
50 км 10/10 200 м
[]
-3.8 -4.0 99 -14 -14 1005.6 1005.1
Ю 10-13
{14}
50 км 9/9 200 м
[]
-3.4 -3.9 96 -13 -13 1004.8 1004.3
ЮВ 12-16
{16}
17 км слаб. ливневой снег 9/9 300 м
[]
-3.9 -5.0 92 -14 -14 1003.5 1003.0
ЮВ 12-18
{18}
1400 м слаб. снег 10/10 300 м
[]
-4.1 -4.6 96 -14 -14 1002.0 1001.5 -12.9 -1.7
ЮВ 14-19
{19}
700 м снег ?/? -3.9 -3.9 100 -15 -15 1000.4 999.9
ЮВ 14-21
{23}
200 м сильн. снег 9/9 100 м
[]
-3.7 -3.7 100 -15 -15 999.3 998.8
ЮВ 16-22
{22}
400 м снег 10/10 100 м
[]
-2.7 -2.7 100 -14 -14 997.3 996.8
Ю 17-22
{23}
300 м сильн. снег ?/? -2.1 -2.1 100 -13 -13 995.9 995.4
Ю 18-22
{24}
1100 м слаб. снег 10/10 100 м
[]
-1.4 -1.4 100 -12 -12 994.3 993.9
Ю 12-18
{22}
3100 м слаб. снег 10/10 300 м
[]
-0.7 -1.1 97 -10 -10 993.4 992.9
Ю 13-20
{22}
4800 м слаб. снег 10/10 300 м
[]
0.0 -0.6 96 -9 -9 992.5 992.1
Местоположение метеостанции Кеми Айос (Финляндия): широта 65.67 долгота 24.52 высота над уровнем моря 3 м.
В архиве по умолчанию представлена погода в Кеми Айос за последнюю неделю. Архивные данные за месяц целиком и за предыдущие месяцы, начиная с января 2011 года, Вы можете получить, выбрав интересующий диапазон дат из раскрывающегося списка и нажав кнопку "Найти!".
*Определитесь, кто Вы:
Внимание! Время в таблицах - всемирное. Для получения местного времени необходимо прибавить поправку, которая равна 1 ч.
Смотрите также архив погоды в соседних городах и на ближайших метеорологических станциях:
Партнеры нашего сайта:      
Пояснения к столбцам:
  • Ветер - указаны скорость ветра в м/с - средняя за 10 мин, порывы в срок и между сроками (в фигурных скобках) и направление, откуда дует ветер: С - северный,
  • СВ - северо-восточный, В - восточный, ЮВ - юго-восточный, Ю - южный, ЮЗ - юго-западный, З - западный, СЗ - северо-западный.
  • Видимость - горизонтальная дальность видимости в метрах или километрах. При видимости от 1 до 10 км при отсутствии осадков обычно наблюдается дымка, при ухудшении видимости до 1 км и менее - туман. В сухую погоду видимость может ухудшаться дымом, пылью или мглою.
  • Явления - указаны атмосферные явления, наблюдавшиеся в срок или в последний час перед сроком; фигурными скобками обозначены явления, наблюдавшиеся между сроками (за 1-3 часа до срока); квадратными скобками обозначены град или гололедные отложения с указанием их диаметра в мм.
  • Облачность - указаны через наклонную черту общая и нижняя облачность в баллах и высота нижней границы облаков в метрах; квадратными скобками обозначены формы облаков: Ci - перистые, Cs - перисто-слоистые, Cc - перисто-кучевые, Ac - высококучевые, As - высокослоистые, Sc - слоисто-кучевые, Ns - слоисто-дождевые, Cu - кучевые, Cb - кучево-дождевые. Подробнее классификацию облаков см. в Атласе облаков (PDF).
  • T - Температура воздуха - температура, измеренная на высоте 2 м над землей.
  • Td - Температура точки росы - температура, при понижении до которой содержащийся в воздухе водяной пар достигнет насыщения.
  • f - Относительная влажность воздуха - влажноcть воздуха, измеренная на высоте 2 м над землей.
  • Te - Эффективная температура - температура, которую ощущает одетый по сезону человек в тени. Характеристика душности погоды. При расчете учитывается влияние влажности воздуха и скорости ветра на теплоощущения человека.
  • Tes - Эффективная температура на солнце - температура, которую ощущает человек, с поправкой на солнечный нагрев. Характеристика знойности погоды. Зависит от высоты солнца над горизонтом, облачности и скорости ветра. Ночью, в пасмурную погоду, а также при ветре 12 м/с и более поправка равна нулю.
  • P - Атмосферное давление - приведенное к уровню моря атмосферное давление.
  • Po - Атмосферное давление - измеренное на уровне метеостанции атмосферное давление.
  • Tmin - Минимальная температура - минимум температуры воздуха на высоте 2 м над землей.
  • Tmax - Максимальная температура - максимум температуры воздуха на высоте 2 м над землей.
  • R - Количество осадков - Количество выпавших осадков за период времени, мм. При наведении курсора мыши на число - период времени, за который выпало указанное количество осадков.
  • R24 - Количество осадков - Количество выпавших осадков за 24 часа, мм.
  • S - Снежный покров - Высота снежного покрова, см. При наведении курсора мыши на число - состояние снежного покрова и степень покрытия местности в баллах.